This is the latest recevied weather packets stored in our database for station/object KW4UJ. If no packets are shown the sender has not sent any weather packets the latest 10 day(s).
| Time | Temp. | Humidity | Pressure | Rain* | Wind** | Luminosity | Snow |
|---|---|---|---|---|---|---|---|
| 1788621757 | 25.56° C | 80% | 1012.9 hPa | 0 mm | - | 171 W/m² | - |
| 1788621456 | 25.56° C | 81% | 1012.9 hPa | 0 mm | - | 207 W/m² | - |
| 1788621153 | 25° C | 82% | 1012.9 hPa | 0 mm | - | 197 W/m² | - |
| 1788620852 | 25° C | 82% | 1013.1 hPa | 0 mm | - | 161 W/m² | - |
| 1788620551 | 25° C | 82% | 1013 hPa | 0 mm | - | 101 W/m² | - |
| 1788620249 | 25° C | 82% | 1013 hPa | 0 mm | - | 90 W/m² | - |
| 1788619944 | 25.56° C | 80% | 1013 hPa | 0 mm | - | 103 W/m² | - |
| 1788619643 | 25.56° C | 79% | 1013.1 hPa | 0 mm | - | 121 W/m² | - |
| 1788619338 | 25.56° C | 79% | 1013 hPa | 0 mm | - | 157 W/m² | - |
| 1788619037 | 25.56° C | 79% | 1013 hPa | 0 mm | - | 172 W/m² | - |
| 1788618737 | 25.56° C | 80% | 1012.8 hPa | 0 mm | - | 181 W/m² | - |
| 1788618436 | 25° C | 80% | 1012.7 hPa | 0 mm | - | 202 W/m² | - |
| 1788618130 | 25° C | 80% | 1012.5 hPa | 0 mm | - | 187 W/m² | - |
| 1788617826 | 25° C | 81% | 1012.7 hPa | 0 mm | - | 109 W/m² | - |
| 1788617522 | 25° C | 81% | 1012.7 hPa | 0 mm | - | 108 W/m² | - |
| 1788617217 | 25.56° C | 80% | 1012.7 hPa | 0 mm | - | 154 W/m² | - |
| 1788616911 | 25.56° C | 81% | 1012.5 hPa | 0 mm | - | 209 W/m² | - |
| 1788616606 | 25° C | 82% | 1012.4 hPa | 0 mm | - | 217 W/m² | - |
| 1788616302 | 25° C | 81% | 1012.1 hPa | 0 mm | - | 215 W/m² | - |
| 1788616001 | 25° C | 82% | 1012.1 hPa | 0 mm | - | 157 W/m² | - |
| 1788615700 | 25.56° C | 83% | 1012 hPa | 0 mm | - | 180 W/m² | - |
| 1788615396 | 25° C | 83% | 1012 hPa | 0 mm | - | 189 W/m² | - |
| 1788615096 | 25° C | 83% | 1012.1 hPa | 0 mm | - | 153 W/m² | - |
| 1788614795 | 25° C | 84% | 1012.1 hPa | 0 mm | - | 143 W/m² | - |
| 1788614490 | 25.56° C | 83% | 1012 hPa | 0 mm | - | 143 W/m² | - |
* Rain latest hour (hover to see other rain measurements)
** Current wind speed in m/s (hover to see current wind gust speed)